Location: Sevilla
(37.3933°N, 5.9839°W)
Time: 05:15:04
(UTC+02:00)

Transit 2A Rocket - Pass Details

Date: 02 July 2024
Orbit: 582 x 910 km, 66.7° (Epoch: 15 July)

Event Time Altitude Azimuth Distance (km) Brightness Sun altitude
Rises 19:04:01 0° 183° (S) 3,043 8.1 30.0°
Reaches altitude 10° 19:06:23 10° 174° (S) 2,182 7.3 29.5°
Maximum altitude 19:10:55 36° 109° (ESE) 1,197 5.8 28.6°
Drops below altitude 10° 19:15:53 10° 45° (NE) 2,398 7.3 27.6°
Sets 19:18:36 0° 37° (NE) 3,386 8.1 27.1°
